1487275200.5,57429,14.38,74200.0,-1.85,-20.49,-20.29,0,*57
1487275201.72,57430,14.38,74200.5,-1.85,-20.35,-20.29,0,*54
1487275202.92,57431,14.38,74198.8,-1.85,-20.29,-20.05,0,*56
1487275204.15,57432,14.38,74202.0,-1.83,-20.25,-20.09,0,*53
1487275205.38,57433,14.38,74198.0,-1.85,-20.15,-20.05,0,*5B
1487275206.63,57434,14.38,74198.3,-1.83,-20.15,-20.09,0,*56
1487275207.86,57435,14.38,74192.3,-1.85,-20.19,-20.05,0,*51
1487275209.11,57436,14.38,74192.0,-1.83,-20.15,-19.99,0,*57
1487275210.34,57437,14.38,74194.0,-1.85,-20.35,-20.29,0,*53
1487275211.57,57438,14.38,74198.5,-1.83,-20.29,-20.25,0,*5B
1487275212.81,57439,14.38,74200.0,-1.83,-20.39,-20.25,0,*5B
1487275214.05,57440,14.38,74194.5,-1.85,-20.15,-20.15,0,*5E
1487275215.28,57441,14.38,74194.3,-1.83,-20.09,-19.99,0,*5A
1487275216.51,57442,14.38,74184.0,-1.83,-20.09,-19.99,0,*59
1487275217.74,57443,14.38,74186.3,-1.83,-20.09,-19.99,0,*58
1487275218.93,57444,14.38,74190.3,-1.81,-20.09,-19.99,0,*5D
1487275220.13,57445,14.38,74188.8,-1.81,-20.09,-19.99,0,*5C
1487275221.39,57446,14.38,74190.5,-1.77,-19.91,-19.85,0,*50
1487275222.6,57447,14.38,74190.5,-1.81,-19.99,-19.95,0,*51
1487275223.84,57448,14.38,74194.8,-1.81,-19.99,-19.85,0,*5F
1487275225.09,57449,14.38,74190.5,-1.77,-20.05,-19.85,0,*58
1487275226.35,57450,14.38,74190.3,-1.77,-19.99,-19.85,0,*5F
1487275227.58,57451,14.38,74194.8,-1.77,-20.05,-19.91,0,*54
1487275228.82,57452,14.38,74190.3,-1.73,-19.95,-19.91,0,*50
1487275230.07,57453,14.38,74194.5,-1.77,-20.05,-19.85,0,*53
1487275231.27,57454,14.38,74194.5,-1.81,-20.09,-19.99,0,*5C
1487275232.5,57455,14.38,74196.8,-1.77,-20.05,-19.99,0,*58
1487275233.76,57456,14.38,74202.0,-1.77,-20.19,-19.99,0,*56
1487275235.01,57457,14.38,74202.8,-1.77,-20.29,-20.15,0,*5A
1487275236.22,57458,14.38,74198.0,-1.75,-19.99,-19.91,0,*50
1487275237.44,57459,14.38,74198.5,-1.75,-19.99,-19.99,0,*59
1487275238.69,57460,14.38,74192.5,-1.73,-19.99,-19.85,0,*58
1487275239.92,57461,14.38,74188.3,-1.75,-20.19,-19.91,0,*58
1487275241.16,57462,14.38,74190.8,-1.75,-20.19,-20.05,0,*5C
1487275242.42,57463,14.38,74192.8,-1.77,-20.15,-20.05,0,*53
1487275243.67,57464,14.38,74194.0,-1.77,-20.15,-20.05,0,*54
1487275244.9,57465,14.38,74192.0,-1.77,-20.05,-19.99,0,*5B
1487275246.16,57466,14.38,74190.8,-1.77,-20.15,-19.99,0,*59
1487275247.39,57467,14.38,74188.3,-1.75,-20.15,-20.05,0,*55
1487275248.6,57468,14.38,74188.0,-1.75,-20.05,-19.91,0,*5C
1487275249.86,57469,14.38,74190.5,-1.73,-19.95,-19.85,0,*5D
1487275251.11,57470,14.38,74192.8,-1.75,-20.15,-20.15,0,*52
1487275252.36,57471,14.38,74194.0,-1.75,-20.19,-20.15,0,*5F
1487275253.61,57472,14.38,74190.8,-1.75,-20.35,-20.15,0,*52
1487275254.87,57473,14.38,74196.8,-1.75,-20.35,-20.19,0,*5F
1487275256.12,57474,14.38,74196.5,-1.75,-20.35,-20.19,0,*58
1487275257.38,57475,14.38,74200.3,-1.75,-20.35,-20.19,0,*59
1487275258.66,57476,14.38,74198.0,-1.77,-20.35,-20.19,0,*58
1487275259.94,57477,14.38,74198.8,-1.77,-20.35,-20.19,0,*59
1487275261.23,57478,14.38,74196.3,-1.77,-20.35,-20.19,0,*56
1487275262.46,57479,14.38,74196.3,-1.81,-20.39,-20.19,0,*52
1487275263.69,57480,14.38,74198.0,-1.77,-20.05,-19.91,0,*58
1487275264.9,57481,14.38,74196.8,-1.81,-20.39,-20.25,0,*5A
1487275266.12,57482,14.38,74198.5,-1.81,-20.25,-20.15,0,*57
1487275267.38,57483,14.38,74198.3,-1.77,-20.15,-19.99,0,*52
1487275268.64,57484,14.38,74202.5,-1.77,-20.15,-19.99,0,*55
1487275269.89,57485,14.38,74198.8,-1.77,-20.29,-20.15,0,*55
1487275271.15,57486,14.38,74194.5,-1.77,-20.19,-20.05,0,*54
1487275272.34,57487,14.38,74192.0,-1.81,-20.29,-20.09,0,*53
1487275273.6,57488,14.38,74192.8,-1.77,-20.05,-19.85,0,*55
1487275274.82,57489,14.38,74198.0,-1.81,-20.05,-19.85,0,*5D
1487275276.08,57490,14.38,74192.0,-1.77,-20.15,-19.99,0,*50
1487275277.34,57491,14.38,74198.3,-1.77,-20.19,-20.05,0,*52
1487275278.57,57492,14.38,74198.0,-1.77,-20.29,-20.05,0,*52
1487275279.82,57493,14.38,74196.0,-1.75,-20.35,-20.15,0,*5D
1487275281.09,57494,14.38,74196.0,-1.77,-20.35,-20.15,0,*58
1487275282.35,57495,14.38,74196.3,-1.77,-20.39,-20.15,0,*55
1487275283.63,57496,14.38,74196.8,-1.77,-20.35,-20.15,0,*5A
1487275284.88,57497,14.38,74198.5,-1.77,-20.29,-20.15,0,*56
1487275286.09,57498,14.38,74194.8,-1.81,-20.39,-20.25,0,*52
1487275287.34,57499,14.38,74196.8,-1.77,-20.29,-20.15,0,*58
1487275288.54,57500,14.38,74198.5,-1.81,-20.29,-20.05,0,*51
1487275289.75,57501,14.38,74196.0,-1.81,-20.29,-20.15,0,*51
1487275291.03,57502,14.38,74196.0,-1.77,-20.35,-20.15,0,*56
1487275292.29,57503,14.38,74196.8,-1.77,-20.35,-20.05,0,*56
1487275293.5,57504,14.38,74196.3,-1.81,-20.43,-20.25,0,*5B
1487275294.76,57505,14.38,74196.0,-1.83,-20.39,-20.15,0,*56
1487275295.99,57506,14.38,74196.8,-1.81,-20.49,-20.25,0,*53
1487275297.2,57507,14.38,74198.0,-1.81,-20.39,-20.25,0,*55
1487275298.43,57508,14.38,74200.8,-1.81,-20.39,-20.15,0,*59
1487275299.66,57509,14.38,74196.5,-1.81,-20.39,-20.15,0,*58
1487275300.91,57510,14.38,74196.0,-1.85,-20.49,-20.19,0,*5F
1487275302.17,57511,14.38,74202.8,-1.83,-20.43,-20.15,0,*5E
1487275303.41,57512,14.38,74200.0,-1.83,-20.25,-20.09,0,*50
1487275304.6,57513,14.38,74200.3,-1.85,-20.29,-19.99,0,*58
1487275305.86,57514,14.38,74200.5,-1.83,-20.15,-19.95,0,*5A
1487275307.09,57515,14.38,74200.0,-1.83,-20.09,-19.91,0,*52
1487275308.35,57516,14.38,74202.0,-1.83,-20.15,-19.95,0,*58
1487275309.59,57517,14.38,74202.3,-1.81,-20.15,-19.85,0,*5A
1487275310.83,57518,14.38,74202.3,-1.85,-19.99,-19.65,0,*51
1487275312.08,57519,14.38,74196.8,-1.83,-19.81,-19.37,0,*58
1487275313.33,57520,14.38,74196.0,-1.83,-19.81,-19.47,0,*55
1487275314.53,57521,14.38,74196.3,-1.85,-19.99,-19.71,0,*5E
1487275315.74,57522,14.38,74196.0,-1.85,-19.99,-19.71,0,*5D
1487275317.0,57523,14.38,74198.3,-1.83,-20.09,-19.57,0,*5D
1487275318.27,57524,14.38,74198.0,-1.83,-19.95,-19.57,0,*55
1487275319.53,57525,14.38,74198.3,-1.83,-19.99,-19.65,0,*59
1487275320.77,57526,14.38,74196.3,-1.81,-19.95,-19.57,0,*55
1487275322.02,57527,14.38,74192.5,-1.83,-19.81,-19.37,0,*55
1487275323.31,57528,14.38,74194.5,-1.77,-19.61,-19.27,0,*5E
1487275324.61,57529,14.38,74192.3,-1.77,-19.61,-19.27,0,*5F
1487275325.86,57530,14.38,74194.0,-1.85,-19.85,-19.41,0,*50
1487275327.11,57531,14.38,74194.5,-1.81,-19.65,-19.31,0,*5C
1487275328.36,57532,14.38,74192.3,-1.77,-19.71,-19.37,0,*55
1487275329.58,57533,14.38,74192.0,-1.81,-19.81,-19.37,0,*52
1487275330.84,57534,14.38,74190.0,-1.81,-19.57,-19.31,0,*58
1487275332.1,57535,14.38,74190.3,-1.81,-19.57,-19.31,0,*59
1487275333.32,57536,14.38,74186.8,-1.81,-19.81,-19.37,0,*57
1487275334.54,57537,14.38,74184.3,-1.81,-19.81,-19.37,0,*56
1487275335.81,57538,14.38,74184.0,-1.77,-19.71,-19.27,0,*5E
1487275337.07,57539,14.38,74188.8,-1.81,-19.85,-19.57,0,*5A
1487275338.34,57540,14.38,74188.8,-1.77,-19.75,-19.57,0,*52
1487275339.59,57541,14.38,74190.0,-1.77,-19.85,-19.47,0,*5D
1487275340.82,57542,14.38,74190.0,-1.81,-19.85,-19.47,0,*57
1487275342.06,57543,14.38,74192.5,-1.77,-19.75,-19.37,0,*57
1487275343.32,57544,14.38,74192.3,-1.77,-19.85,-19.37,0,*5F
1487275344.53,57545,14.38,74198.3,-1.81,-19.95,-19.37,0,*56
1487275345.73,57546,14.31,74196.8,-1.81,-19.95,-19.37,0,*55
1487275346.98,57547,14.38,74196.3,-1.77,-19.71,-19.13,0,*51
1487275348.22,57548,14.38,74192.3,-1.75,-19.57,-19.13,0,*58
1487275349.46,57549,14.38,74190.5,-1.75,-19.61,-19.13,0,*5C
1487275350.73,57550,14.31,74176.8,-1.77,-19.61,-19.13,0,*56
1487275351.94,57551,14.31,74184.3,-1.75,-19.75,-19.13,0,*50
1487275353.18,57552,14.38,74188.0,-1.75,-19.57,-18.99,0,*50
1487275354.43,57553,14.38,74186.8,-1.77,-19.41,-18.83,0,*5F
1487275355.69,57554,14.31,74184.3,-1.77,-19.47,-18.93,0,*5F
1487275356.95,57555,14.38,74182.8,-1.77,-19.41,-18.83,0,*59
1487275358.21,57556,14.38,74180.0,-1.77,-19.47,-18.93,0,*5D
1487275359.47,57557,14.38,74188.3,-1.75,-19.61,-19.23,0,*50
1487275360.71,57558,14.38,74192.0,-1.75,-19.71,-19.23,0,*5E
1487275361.94,57559,14.38,74192.0,-1.75,-19.85,-19.37,0,*51
1487275363.19,57560,14.38,74188.0,-1.75,-19.91,-19.57,0,*58
1487275364.39,57561,14.38,74196.8,-1.75,-20.05,-19.47,0,*5F
1487275365.63,57562,14.38,74194.0,-1.75,-19.91,-19.57,0,*5A
1487275366.87,57563,14.38,74192.8,-1.75,-19.91,-19.57,0,*5B
1487275368.12,57564,14.38,74196.3,-1.75,-19.91,-19.57,0,*5C
1487275369.35,57565,14.38,74194.3,-1.73,-19.99,-19.51,0,*55
1487275370.57,57566,14.38,74196.3,-1.81,-20.09,-19.65,0,*5F
1487275371.84,57567,14.38,74192.5,-1.77,-19.99,-19.57,0,*55
1487275373.08,57568,14.38,74196.3,-1.77,-19.99,-19.47,0,*5B
1487275374.31,57569,14.38,74198.5,-1.81,-20.09,-19.65,0,*50
1487275375.56,57570,14.38,74198.3,-1.81,-20.15,-19.65,0,*55
1487275376.82,57571,14.38,74198.0,-1.81,-20.15,-19.57,0,*55
1487275378.05,57572,14.38,74194.3,-1.77,-19.91,-19.37,0,*5F
1487275379.26,57573,14.38,74196.0,-1.81,-19.99,-19.47,0,*58
1487275380.5,57574,14.38,74198.0,-1.77,-19.99,-19.47,0,*56
1487275381.69,57575,14.38,74196.8,-1.81,-20.05,-19.47,0,*51
1487275382.9,57576,14.38,74194.3,-1.81,-19.95,-19.37,0,*56
1487275384.11,57577,14.38,74198.0,-1.81,-19.99,-19.37,0,*5B
1487275385.33,57578,14.31,74192.8,-1.81,-19.81,-19.17,0,*5F
1487275386.62,57579,14.38,74198.5,-1.77,-19.61,-18.93,0,*54
1487275387.85,57580,14.31,74192.0,-1.81,-19.57,-19.03,0,*56
1487275389.11,57581,14.38,74194.8,-1.77,-19.57,-18.99,0,*5C
1487275390.37,57582,14.38,74188.8,-1.81,-19.57,-18.89,0,*57
1487275391.66,57583,14.38,74190.8,-1.77,-19.57,-18.93,0,*54
1487275392.86,57584,14.38,74192.3,-1.81,-19.71,-19.07,0,*52
1487275394.12,57585,14.38,74194.8,-1.77,-19.57,-19.07,0,*5E
1487275395.38,57586,14.38,74190.8,-1.77,-19.61,-18.99,0,*5E
1487275396.64,57587,14.38,74194.0,-1.77,-19.61,-18.99,0,*5F
1487275397.88,57588,14.38,74194.0,-1.77,-19.71,-18.99,0,*51
1487275399.12,57589,14.38,74198.0,-1.81,-19.85,-19.23,0,*52
1487275400.39,57590,14.38,74192.8,-1.77,-19.61,-18.99,0,*59
1487275401.62,57591,14.38,74192.5,-1.77,-19.71,-18.99,0,*59
1487275402.85,57592,14.38,74192.3,-1.77,-19.71,-19.07,0,*5C
1487275404.09,57593,14.31,74190.3,-1.77,-19.75,-19.13,0,*5C
1487275405.34,57594,14.31,74188.5,-1.81,-19.85,-19.23,0,*5E
1487275406.59,57595,14.38,74196.5,-1.75,-19.85,-19.23,0,*54
1487275407.8,57596,14.38,74198.8,-1.81,-19.81,-19.07,0,*5E
1487275409.01,57597,14.38,74198.0,-1.81,-19.81,-19.07,0,*5F
1487275410.28,57598,14.38,74196.5,-1.77,-19.41,-18.65,0,*50
1487275411.57,57599,14.38,74194.3,-1.77,-19.27,-18.55,0,*52
1487275412.83,57600,14.38,74192.5,-1.77,-19.23,-18.49,0,*58
1487275414.1,57601,14.31,74188.5,-1.77,-19.23,-18.45,0,*55
1487275415.31,57602,14.38,74190.5,-1.81,-19.47,-18.65,0,*5F
1487275416.56,57603,14.31,74194.0,-1.81,-19.57,-18.89,0,*5D
1487275417.82,57604,14.31,74194.8,-1.77,-19.57,-18.83,0,*59
1487275419.08,57605,14.38,74196.8,-1.77,-19.61,-18.83,0,*5D
1487275420.31,57606,14.38,74198.5,-1.77,-19.71,-19.07,0,*52
1487275421.55,57607,14.38,74196.5,-1.81,-19.71,-18.93,0,*56
1487275422.78,57608,14.38,74200.8,-1.77,-19.47,-18.79,0,*51
1487275424.02,57609,14.38,74198.5,-1.77,-19.47,-18.69,0,*51
1487275425.29,57610,14.38,74196.3,-1.77,-19.13,-18.31,0,*55
1487275426.55,57611,14.38,74192.3,-1.81,-19.31,-18.55,0,*5F
1487275427.78,57612,14.31,74188.5,-1.73,-19.17,-18.41,0,*50
1487275429.05,57613,14.31,74186.3,-1.73,-19.17,-18.31,0,*56
1487275430.31,57614,14.38,74192.0,-1.73,-19.17,-18.31,0,*51
1487275431.53,57615,14.38,74192.8,-1.75,-19.37,-18.49,0,*5B
1487275432.77,57616,14.38,74192.0,-1.75,-19.27,-18.49,0,*59
1487275434.03,57617,14.38,74186.8,-1.73,-19.31,-18.41,0,*51
1487275435.27,57618,14.38,74192.5,-1.75,-19.47,-18.55,0,*5C
1487275436.5,57619,14.38,74186.8,-1.73,-19.37,-18.49,0,*51
1487275437.75,57620,14.31,74176.3,-1.75,-19.13,-18.35,0,*50
1487275439.01,57621,14.38,74186.5,-1.75,-19.23,-18.35,0,*52
1487275440.25,57622,14.38,74184.3,-1.75,-19.23,-18.45,0,*56
1487275441.48,57623,14.31,74182.3,-1.73,-19.07,-18.25,0,*51
1487275442.74,57624,14.38,74186.5,-1.73,-19.07,-18.31,0,*53
1487275443.97,57625,14.38,74188.3,-1.73,-19.17,-18.25,0,*56
1487275445.2,57626,14.38,74194.0,-1.73,-19.07,-18.25,0,*54
1487275446.42,57627,14.38,74192.3,-1.73,-19.03,-18.25,0,*51
1487275447.68,57628,14.31,74190.8,-1.73,-19.07,-18.31,0,*5F
1487275448.97,57629,14.38,74192.8,-1.73,-19.23,-18.31,0,*58
1487275450.23,57630,14.31,74192.3,-1.73,-19.31,-18.45,0,*50
1487275451.46,57631,14.38,74194.0,-1.73,-19.17,-18.25,0,*53
1487275452.7,57632,14.31,74190.8,-1.73,-19.17,-18.41,0,*52
1487275453.92,57633,14.31,74184.3,-1.73,-19.03,-18.25,0,*54
1487275455.15,57634,14.31,74172.3,-1.71,-18.93,-18.17,0,*58
1487275456.4,57635,14.38,74176.8,-1.71,-19.17,-18.31,0,*50
1487275457.67,57636,14.38,74186.8,-1.71,-19.23,-18.31,0,*54
1487275458.91,57637,14.31,74186.5,-1.71,-19.31,-18.45,0,*55
1487275460.21,57638,14.38,74186.0,-1.69,-19.27,-18.35,0,*53
1487275461.44,57639,14.31,74184.0,-1.69,-19.13,-18.25,0,*54
1487275462.65,57640,14.38,74186.8,-1.71,-19.03,-18.17,0,*53
1487275463.86,57641,14.31,74188.3,-1.71,-19.03,-18.11,0,*54
1487275465.12,57642,14.38,74188.5,-1.69,-18.89,-18.07,0,*5A
1487275466.38,57643,14.38,74194.5,-1.69,-18.89,-18.07,0,*5B
1487275467.62,57644,14.38,74192.0,-1.69,-18.83,-18.11,0,*51
1487275468.88,57645,14.38,74188.5,-1.69,-18.89,-18.11,0,*5A
1487275470.13,57646,14.31,74190.3,-1.71,-19.17,-18.31,0,*54
1487275471.37,57647,14.38,74196.0,-1.71,-19.07,-18.31,0,*54
1487275472.61,57648,14.38,74188.5,-1.69,-18.99,-18.11,0,*56
1487275473.85,57649,14.38,74194.8,-1.69,-18.99,-18.07,0,*50
1487275475.08,57650,14.31,74190.5,-1.71,-18.93,-18.17,0,*5A
1487275476.34,57651,14.38,74190.8,-1.69,-18.89,-18.11,0,*5F
1487275477.56,57652,14.38,74190.3,-1.67,-19.03,-18.11,0,*51
1487275478.77,57653,14.38,74194.5,-1.67,-19.17,-18.41,0,*50
1487275480.04,57654,14.31,74190.3,-1.67,-19.31,-18.35,0,*50
1487275481.28,57655,14.31,74194.8,-1.67,-19.13,-18.35,0,*51
1487275482.5,57656,14.31,74192.5,-1.67,-19.13,-18.21,0,*57
1487275483.7,57657,14.38,74196.3,-1.67,-19.03,-18.25,0,*53
1487275484.94,57658,14.31,74192.8,-1.67,-19.17,-18.35,0,*58
1487275486.17,57659,14.38,74188.3,-1.69,-19.03,-18.21,0,*57
1487275487.41,57660,14.31,74190.5,-1.69,-19.03,-18.21,0,*5D
1487275488.64,57661,14.31,74190.3,-1.67,-18.89,-18.11,0,*52
1487275489.86,57662,14.38,74190.3,-1.67,-18.99,-18.11,0,*50
1487275491.08,57663,14.31,74188.8,-1.67,-18.99,-18.11,0,*51
1487275492.29,57664,14.38,74198.8,-1.67,-19.13,-18.25,0,*52
1487275493.53,57665,14.31,74192.5,-1.67,-19.17,-18.35,0,*56
1487275494.74,57666,14.38,74192.0,-1.67,-19.17,-18.25,0,*54
1487275496.01,57667,14.38,74192.8,-1.67,-19.27,-18.35,0,*57
1487275497.29,57668,14.31,74188.5,-1.67,-19.27,-18.35,0,*58
1487275498.52,57669,14.31,74188.5,-1.67,-19.31,-18.41,0,*5D
1487275499.76,57670,14.31,74184.3,-1.67,-19.17,-18.35,0,*52
1487275500.98,57671,14.38,74186.0,-1.67,-19.03,-18.11,0,*50
1487275502.21,57672,14.31,74182.0,-1.65,-18.99,-18.17,0,*55
1487275503.43,57673,14.38,74194.0,-1.67,-19.17,-18.21,0,*54
1487275504.63,57674,14.31,74194.0,-1.67,-19.17,-18.25,0,*57
1487275505.93,57675,14.38,74194.0,-1.65,-19.23,-18.31,0,*56
1487275507.17,57676,14.31,74188.8,-1.67,-19.17,-18.35,0,*54
1487275508.44,57677,14.38,74192.0,-1.69,-19.17,-18.35,0,*5B
1487275509.7,57678,14.31,74188.5,-1.69,-19.31,-18.41,0,*53
1487275510.96,57679,14.31,74188.8,-1.69,-19.27,-18.41,0,*55
1487275512.22,57680,14.38,74194.3,-1.69,-19.31,-18.41,0,*54
1487275513.48,57681,14.38,74194.3,-1.69,-19.31,-18.41,0,*55
1487275514.73,57682,14.38,74192.0,-1.67,-19.27,-18.41,0,*5F
1487275515.94,57683,14.31,74190.5,-1.71,-19.37,-18.41,0,*58
1487275517.18,57684,14.38,74192.0,-1.69,-19.37,-18.45,0,*52
1487275518.41,57685,14.31,74190.5,-1.69,-19.37,-18.41,0,*57
1487275519.66,57686,14.31,74194.0,-1.71,-19.27,-18.45,0,*58
1487275520.9,57687,14.31,74192.3,-1.67,-19.31,-18.41,0,*5D
1487275522.19,57688,14.38,74194.8,-1.69,-19.27,-18.35,0,*58
1487275523.43,57689,14.31,74192.3,-1.69,-18.99,-18.11,0,*5B
1487275524.65,57690,14.38,74194.5,-1.71,-18.65,-17.83,0,*5D
1487275525.89,57691,14.38,74190.0,-1.69,-18.73,-17.83,0,*52
1487275527.13,57692,14.31,74190.0,-1.69,-18.99,-18.11,0,*51
1487275528.37,57693,14.31,74186.5,-1.69,-19.13,-18.21,0,*50
1487275529.61,57694,14.31,74188.5,-1.69,-19.17,-18.25,0,*57
1487275530.84,57695,14.31,74190.0,-1.71,-19.31,-18.45,0,*5D
1487275532.08,57696,14.31,74190.5,-1.69,-19.17,-18.25,0,*55
1487275533.31,57697,14.38,74188.8,-1.69,-18.99,-18.21,0,*57
1487275534.55,57698,14.38,74190.5,-1.69,-18.73,-17.83,0,*5B
1487275535.77,57699,14.31,74190.3,-1.71,-18.79,-17.83,0,*59
1487275537.01,57700,14.31,74190.0,-1.69,-18.83,-17.83,0,*54
1487275538.25,57701,14.31,74188.5,-1.69,-18.69,-17.83,0,*51
1487275539.47,57702,14.31,74194.0,-1.67,-18.73,-17.83,0,*57
1487275540.68,57703,14.31,74194.3,-1.67,-18.73,-17.83,0,*56
1487275541.97,57704,14.31,74196.8,-1.69,-18.59,-17.63,0,*59
1487275543.22,57705,14.31,74188.8,-1.69,-18.59,-17.69,0,*52
1487275544.46,57706,14.31,74186.8,-1.67,-18.59,-17.83,0,*5B
1487275545.7,57707,14.31,74180.5,-1.67,-18.83,-17.93,0,*5C
1487275546.93,57708,14.31,74190.5,-1.67,-18.73,-17.93,0,*5C
1487275548.17,57709,14.31,74194.0,-1.65,-18.69,-17.87,0,*51
1487275549.43,57710,14.31,74192.3,-1.67,-18.59,-17.79,0,*59
1487275550.69,57711,14.31,74194.5,-1.67,-18.55,-17.63,0,*5F
1487275551.94,57712,14.38,74190.3,-1.65,-18.49,-17.63,0,*53
1487275553.16,57713,14.31,74188.3,-1.67,-18.45,-17.69,0,*56
1487275554.44,57714,14.31,74184.3,-1.65,-18.55,-17.63,0,*58
1487275555.67,57715,14.31,74196.8,-1.65,-18.49,-17.73,0,*55
1487275556.9,57716,14.31,74196.8,-1.65,-18.65,-17.73,0,*58
1487275558.16,57717,14.31,74194.8,-1.65,-18.49,-17.59,0,*5F
1487275559.4,57718,14.31,74192.8,-1.67,-18.69,-17.79,0,*52
1487275560.66,57719,14.31,74180.8,-1.65,-18.69,-17.93,0,*55
1487275561.92,57720,14.31,74182.3,-1.65,-18.69,-17.93,0,*5F
1487275563.18,57721,14.38,74182.3,-1.65,-18.79,-17.93,0,*5F
1487275564.43,57722,14.31,74178.8,-1.65,-18.79,-17.93,0,*5C
1487275565.67,57723,14.31,74180.0,-1.65,-18.79,-17.87,0,*58
1487275566.93,57724,14.38,74190.5,-1.65,-18.79,-17.93,0,*5A
1487275568.17,57725,14.38,74188.5,-1.65,-18.69,-17.87,0,*5F
1487275569.41,57726,14.31,74186.5,-1.65,-18.65,-17.87,0,*50
1487275570.64,57727,14.31,74182.5,-1.65,-18.49,-17.73,0,*54
1487275571.88,57728,14.38,74176.8,-1.67,-18.41,-17.55,0,*55
1487275573.15,57729,14.31,74174.8,-1.63,-18.31,-17.55,0,*57
1487275574.38,57730,14.38,74186.0,-1.63,-18.45,-17.59,0,*50
1487275575.62,57731,14.31,74186.5,-1.63,-18.59,-17.69,0,*5F
1487275576.85,57732,14.31,74186.8,-1.63,-18.59,-17.69,0,*5C
1487275578.1,57733,14.31,74188.5,-1.61,-18.49,-17.83,0,*5A
1487275579.31,57734,14.38,74196.3,-1.63,-18.73,-17.87,0,*52
1487275580.55,57735,14.31,74192.8,-1.63,-18.73,-17.97,0,*52
1487275581.77,57736,14.31,74194.0,-1.63,-18.65,-17.87,0,*57
1487275583.01,57737,14.31,74194.8,-1.63,-18.73,-17.97,0,*50
1487275584.27,57738,14.31,74194.3,-1.63,-18.89,-18.01,0,*5A
1487275585.53,57739,14.31,74194.5,-1.65,-18.83,-18.01,0,*57
1487275586.79,57740,14.31,74194.0,-1.65,-18.83,-18.01,0,*59
1487275588.05,57741,14.31,74194.3,-1.65,-18.83,-18.01,0,*58
1487275589.29,57742,14.38,74198.8,-1.65,-18.83,-18.07,0,*5D
1487275590.53,57743,14.31,74192.8,-1.63,-18.79,-17.97,0,*59
1487275591.79,57744,14.31,74196.0,-1.65,-18.83,-18.01,0,*5D
1487275593.02,57745,14.31,74194.8,-1.67,-18.89,-18.11,0,*55
1487275594.26,57746,14.31,74198.0,-1.67,-18.89,-18.07,0,*51
1487275595.47,57747,14.38,74198.5,-1.67,-18.79,-18.07,0,*5F
1487275596.73,57748,14.31,74198.3,-1.65,-18.79,-18.01,0,*54
1487275597.95,57749,14.31,74198.8,-1.67,-18.73,-18.07,0,*5B
1487275599.19,57750,14.31,74196.3,-1.65,-18.69,-17.87,0,*5D
1487275600.45,57751,14.38,74198.0,-1.67,-18.55,-17.79,0,*50
1487275601.66,57752,14.31,74192.3,-1.67,-18.25,-17.49,0,*57
1487275602.89,57753,14.31,74190.5,-1.65,-18.21,-17.49,0,*50
1487275604.17,57754,14.31,74196.3,-1.65,-18.31,-17.63,0,*5E
1487275605.43,57755,14.31,74196.5,-1.65,-18.41,-17.63,0,*58
1487275606.7,57756,14.31,74196.5,-1.65,-18.31,-17.49,0,*54
1487275607.95,57757,14.31,74194.8,-1.65,-18.35,-17.49,0,*51
1487275609.19,57758,14.31,74192.8,-1.63,-18.17,-17.55,0,*55
1487275610.42,57759,14.31,74192.5,-1.63,-18.11,-17.41,0,*57
1487275611.66,57760,14.31,74190.0,-1.63,-18.17,-17.45,0,*5F
1487275612.9,57761,14.31,74196.0,-1.63,-18.11,-17.41,0,*5C
1487275614.14,57762,14.31,74196.5,-1.65,-18.17,-17.35,0,*5C
1487275615.37,57763,14.31,74196.3,-1.65,-18.17,-17.49,0,*56
1487275616.63,57764,14.31,74194.0,-1.61,-18.01,-17.31,0,*5D
1487275617.92,57765,14.31,74188.3,-1.61,-18.01,-17.41,0,*5B
1487275619.18,57766,14.38,74198.0,-1.63,-18.01,-17.41,0,*5A
1487275620.42,57767,14.31,74190.3,-1.63,-17.97,-17.31,0,*5C
1487275621.65,57768,14.31,74188.5,-1.63,-17.97,-17.31,0,*53
1487275622.89,57769,14.31,74188.0,-1.63,-17.97,-17.31,0,*52
1487275624.13,57770,14.31,74184.8,-1.63,-18.11,-17.45,0,*58
1487275625.36,57771,14.38,74192.0,-1.63,-18.11,-17.45,0,*59
1487275626.62,57772,14.31,74188.0,-1.61,-18.17,-17.45,0,*5E
1487275627.89,57773,14.31,74188.8,-1.61,-18.25,-17.59,0,*53
1487275629.15,57774,14.31,74186.3,-1.61,-18.17,-17.55,0,*59
1487275630.41,57775,14.31,74186.3,-1.61,-18.11,-17.45,0,*5F
1487275631.67,57776,14.31,74180.3,-1.61,-18.11,-17.41,0,*58
1487275632.91,57777,14.31,74182.0,-1.63,-18.11,-17.45,0,*5F
1487275634.17,57778,14.31,74184.8,-1.61,-18.17,-17.55,0,*55
1487275635.43,57779,14.31,74188.3,-1.61,-18.25,-17.59,0,*59
1487275636.69,57780,14.31,74194.3,-1.61,-18.35,-17.73,0,*56
1487275637.95,57781,14.31,74194.8,-1.61,-18.35,-17.73,0,*57
1487275639.22,57782,14.31,74194.3,-1.61,-18.31,-17.73,0,*50
1487275640.51,57783,14.38,74188.3,-1.61,-18.01,-17.45,0,*57
1487275641.77,57784,14.31,74180.8,-1.61,-17.97,-17.31,0,*53
1487275643.03,57785,14.31,74186.3,-1.61,-18.01,-17.31,0,*52
1487275644.29,57786,14.31,74190.0,-1.61,-18.17,-17.45,0,*55
1487275645.55,57787,14.31,74192.0,-1.61,-18.25,-17.55,0,*54
1487275646.81,57788,14.31,74194.3,-1.61,-18.11,-17.45,0,*5D
1487275648.08,57789,14.31,74192.0,-1.61,-18.17,-17.55,0,*5B
1487275649.37,57790,14.31,74192.5,-1.61,-18.31,-17.59,0,*5B
1487275650.61,57791,14.31,74194.3,-1.61,-18.25,-17.69,0,*5C
1487275651.84,57792,14.31,74190.0,-1.61,-18.17,-17.73,0,*55
1487275653.11,57793,14.31,74190.8,-1.61,-18.31,-17.69,0,*5B
1487275654.32,57794,14.31,74190.5,-1.59,-18.21,-17.69,0,*56
1487275655.59,57795,14.31,74190.8,-1.61,-18.35,-17.69,0,*59
1487275656.85,57796,14.31,74192.5,-1.61,-18.35,-17.73,0,*51
1487275658.08,57797,14.31,74194.3,-1.61,-18.25,-17.73,0,*51
1487275659.32,57798,14.31,74194.5,-1.61,-18.25,-17.73,0,*5E
1487275660.53,57799,14.31,74192.5,-1.63,-18.11,-17.69,0,*51
1487275661.79,57800,14.31,74190.8,-1.61,-18.11,-17.55,0,*53
1487275663.05,57801,14.31,74194.0,-1.61,-18.11,-17.55,0,*52
1487275664.31,57802,14.31,74188.3,-1.61,-18.17,-17.59,0,*5B
1487275665.55,57803,14.31,74190.5,-1.61,-18.25,-17.69,0,*58
1487275666.81,57804,14.31,74186.8,-1.61,-18.17,-17.59,0,*5D
1487275668.07,57805,14.31,74184.3,-1.61,-18.11,-17.55,0,*56
1487275669.33,57806,14.31,74198.0,-1.61,-18.17,-17.59,0,*5F
1487275670.6,57807,14.31,74196.3,-1.61,-18.11,-17.55,0,*54
1487275671.86,57808,14.31,74192.3,-1.61,-17.87,-17.55,0,*5B
1487275673.12,57809,14.31,74190.3,-1.61,-18.11,-17.55,0,*5A
1487275674.33,57810,14.31,74192.8,-1.63,-18.17,-17.69,0,*59
1487275675.56,57811,14.31,74196.3,-1.61,-18.11,-17.73,0,*57
1487275676.8,57812,14.31,74194.0,-1.63,-18.11,-17.55,0,*52
1487275678.09,57813,14.31,74194.5,-1.61,-17.97,-17.55,0,*50
1487275679.33,57814,14.31,74192.3,-1.63,-17.87,-17.41,0,*51
1487275680.59,57815,14.31,74192.5,-1.61,-17.83,-17.25,0,*54
1487275681.85,57816,14.31,74188.0,-1.61,-17.83,-17.25,0,*57
1487275683.11,57817,14.31,74190.8,-1.61,-17.73,-17.25,0,*59
1487275684.37,57818,14.31,74184.8,-1.61,-17.69,-17.25,0,*5D
1487275685.6,57819,14.31,74188.0,-1.59,-17.69,-17.21,0,*53
1487275686.84,57820,14.31,74186.8,-1.59,-17.69,-17.21,0,*59
1487275688.09,57821,14.38,74194.3,-1.53,-17.73,-17.17,0,*5C
1487275689.33,57822,14.31,74190.0,-1.59,-17.69,-17.25,0,*5F
1487275690.56,57823,14.31,74190.0,-1.55,-17.69,-17.21,0,*56
1487275691.84,57824,14.31,74198.0,-1.53,-17.63,-17.21,0,*5D
1487275693.08,57825,14.31,74198.5,-1.59,-17.69,-17.25,0,*58
1487275694.31,57826,14.31,74192.3,-1.55,-17.69,-17.25,0,*57
1487275695.54,57827,14.31,74198.5,-1.59,-17.69,-17.25,0,*5A
1487275696.79,57828,14.31,74196.0,-1.59,-17.83,-17.41,0,*53